[[{"header":{"parameterUnit":"m.s-1","parameterCategory":2,"la1":30.2991,"la2":30.254,"lo1":-89.0895,"lo2":-89.0444,"dx":0.0017,"dy":0.0017,"nx":28,"ny":28,"refTime":"2022-11-26T09:00:00:Z","depth":"0","parameterNumber":2,"parameterNumberName":"U-component_of_CURRENTS"},"data":[0,0,0,0,0,0,0,0,0,0,0,0,0,0,0,0,0,0,0,0,0,0,0,0,0,0,0,0,0,0,0,0,0,0,0,0,0,0,0,0,0,0,0,0,0,0,0,0,0,0,0,0,0,0,0,0,0,0,0.4255,0.4256,0,0.4321,0.4321,0.4322,0.4313,0.4312,0.4312,0.4311,0.4325,0.4325,0.4326,0,0,0,0,0,0,0,0,0,0,0,0,0,0.4139,0.4141,0.4254,0.4256,0.4257,0.4321,0.4321,0.4322,0.4313,0.4312,0.4312,0.4311,0.4324,0.4325,0.4327,0,0,0,0,0,0,0,0,0,0,0,0,0,0.4191,0.4142,0.4254,0.4264,0.4266,0.4321,0.4321,0.4322,0.4313,0.4312,0.4311,0.431,0.4324,0.4325,0.4327,0.4355,0,0,0.4331,0.4332,0,0,0,0,0,0,0,0,0.4188,0.4195,0.4261,0.4263,0.4266,0.4312,0.4286,0.4332,0.4314,0.429,0.4311,0.431,0.4319,0.4321,0.433,0.4356,0.4356,0.4331,0.4332,0.4333,0.4333,0,0,0,0,0,0,0,0.4185,0.4192,0.4276,0.4263,0.4266,0.4272,0.4277,0.4295,0.4305,0.4292,0.4293,0.4308,0.4319,0.4328,0.433,0.4356,0.4331,0.4332,0.4333,0.4334,0.4459,0.4462,0,0,0,0,0,0,0.4187,0.4189,0.4274,0.4278,0.4229,0.4275,0.4281,0.4294,0.4306,0.4308,0.4309,0.4308,0.4326,0.4328,0.433,0.4406,0.4333,0.4334,0.4335,0.4457,0.446,0.4463,0,0,0,0,0,0,0.4184,0.4193,0.4271,0.4239,0.425,0.4278,0.4293,0.4296,0.4311,0.432,0.432,0.4322,0.4326,0.4328,0.4363,0.4404,0.4335,0.4336,0.4454,0.4458,0.4461,0.453,0,0,0,0,0,0,0.418,0.4192,0.4203,0.4239,0.4252,0.4317,0.4295,0.4298,0.4324,0.4323,0.4332,0.4332,0.4325,0.4361,0.4365,0.4405,0.4337,0.4451,0.4456,0.446,0.4525,0.4536,0.4545,0,0,0,0,0,0.4176,0.4194,0.4203,0.4213,0.4265,0.4319,0.4326,0.4339,0.4326,0.4345,0.4353,0.4332,0.4393,0.4364,0.4368,0.441,0.4449,0.4454,0.446,0.452,0.4534,0.4545,0,0,0,0,0,0,0.4144,0.4197,0.4206,0.4238,0.4282,0.4319,0.4341,0.4348,0.4369,0.4365,0.4359,0.4361,0.4413,0.4404,0.4373,0.4462,0.442,0.4426,0.4465,0.4477,0.4488,0.4498,0.4338,0,0,0,0,0,0.4146,0.4177,0.4227,0.4255,0.4279,0.4311,0.4333,0.4347,0.4373,0.4381,0.4389,0.4406,0.444,0.445,0.4476,0.4517,0.4533,0.455,0.456,0.4569,0.4583,0.4653,0.467,0.4481,0.4481,0.4481,0,0,0.4139,0.4177,0.4191,0.4252,0.4284,0.4327,0.4321,0.4366,0.44,0.438,0.4423,0.4444,0.4462,0.4516,0.4538,0.451,0.4632,0.4576,0.4583,0.4592,0.466,0.4679,0.4695,0.4485,0.4484,0.4483,0,0,0.4152,0.418,0.4212,0.4256,0.4319,0.4345,0.4361,0.441,0.443,0.448,0.4484,0.453,0.4564,0.4595,0.4612,0.4696,0.469,0.4705,0.4757,0.4825,0.4841,0.4855,0.4899,0.4917,0.4702,0.4702,0.4702,0,0.4142,0.419,0.423,0.4279,0.4321,0.4354,0.4402,0.4434,0.4486,0.4526,0.4502,0.4608,0.4607,0.4698,0.472,0.4719,0.475,0.4703,0.4838,0.4852,0.4865,0.4907,0.4926,0.4706,0.4705,0.4705,0.4704,0,0.4179,0.4224,0.4251,0.4322,0.4373,0.4422,0.4481,0.4536,0.4561,0.4594,0.4692,0.471,0.4777,0.4785,0.477,0.4878,0.4867,0.4847,0.4802,0.4889,0.4927,0.4945,0.4711,0.471,0.4709,0.4708,0,0,0.4138,0.4252,0.426,0.43,0.4403,0.4438,0.4535,0.4628,0.4679,0.4742,0.4825,0.4887,0.4907,0.493,0.4935,0.4977,0.508,0.495,0.4951,0.4986,0.5229,0.5225,0.5243,0.5088,0.5091,0.5094,0.5217,0,0.4154,0.4232,0.4302,0.4378,0.4423,0.4518,0.4593,0.4684,0.4751,0.4835,0.4906,0.4966,0.4959,0.4985,0.5046,0.5078,0.5132,0.5049,0.5146,0.5149,0.513,0.5266,0.5184,0.5288,0.5234,0.5237,0.5239,0,0.4162,0.4216,0.4294,0.4406,0.4435,0.4489,0.4629,0.4704,0.485,0.4904,0.5022,0.5065,0.518,0.5126,0.5276,0.5228,0.5242,0.525,0.5255,0.5242,0.518,0.5195,0.5322,0.5259,0.5267,0.5264,0.5262,0,0.4091,0.4207,0.4263,0.4303,0.4436,0.4503,0.4579,0.4725,0.482,0.4951,0.5047,0.5166,0.5261,0.5316,0.5385,0.5332,0.5525,0.5449,0.5465,0.5463,0.5409,0.5397,0.5481,0.5546,0.5546,0.5546,0.5546,0,0.4077,0.4114,0.4227,0.4253,0.433,0.4442,0.4547,0.4649,0.4823,0.4933,0.5073,0.5199,0.5317,0.5454,0.5449,0.5558,0.56,0.5517,0.5518,0.543,0.542,0.537,0.5307,0.555,0.5549,0.5549,0.5548,0,0.3999,0.4073,0.4134,0.4257,0.43,0.4352,0.4542,0.4606,0.4795,0.4964,0.5023,0.5282,0.5452,0.5572,0.5672,0.5671,0.5596,0.573,0.5616,0.5602,0.5512,0.5454,0.5261,0.5097,0.5756,0.5757,0.5758,0,0.397,0.3991,0.4107,0.4135,0.4193,0.4294,0.4359,0.4558,0.4657,0.4999,0.5075,0.5347,0.5509,0.5735,0.5775,0.5836,0.564,0.576,0.5636,0.5545,0.5482,0.5186,0.5037,0.5585,0.5585,0.5584,0.5584,0,0.3906,0.3942,0.3984,0.4046,0.4104,0.4183,0.4306,0.4397,0.4638,0.4831,0.5075,0.5249,0.5561,0.565,0.5802,0.58,0.5535,0.5748,0.5697,0.5412,0.5053,0.4883,0.5448,0.5579,0.558,0.558,0.558,0.558,0.3839,0.3847,0.3893,0.3938,0.399,0.4033,0.4049,0.4215,0.4386,0.4627,0.4904,0.5131,0.5479,0.5709,0.5668,0.5664,0.5498,0.5555,0.5511,0.5231,0.5014,0.5569,0.5672,0.5673,0.5674,0.5674,0.5675,0,0.3739,0.3749,0.3781,0.3809,0.3786,0.3877,0.3969,0.397,0.4083,0.4422,0.4633,0.5031,0.5228,0.5437,0.5643,0.5511,0.516,0.5368,0.4963,0.4838,0.5425,0.5368,0.5358,0.5358,0.5358,0.5358,0.5358,0.5358,0.3683,0.3652,0.3662,0.3586,0.3596,0.3528,0.3532,0.3584,0.3786,0.4044,0.4308,0.4574,0.5162,0.5549,0.5568,0.5413,0.4982,0.4776,0.4657,0.5172,0.5185,0.5197,0.5132,0.5073,0.5072,0.3897,0.3889,0.3883]},{"header":{"parameterUnit":"m.s-1","parameterCategory":2,"la1":30.2991,"la2":30.254,"lo1":-89.0895,"lo2":-89.0444,"dx":0.0017,"dy":0.0017,"nx":28,"ny":28,"refTime":"2022-11-26T09:00:00:Z","depth":"0","parameterNumber":3,"parameterNumberName":"V-component_of_CURRENTS"},"data":[0,0,0,0,0,0,0,0,0,0,0,0,0,0,0,0,0,0,0,0,0,0,0,0,0,0,0,0,0,0,0,0,0,0,0,0,0,0,0,0,0,0,0,0,0,0,0,0,0,0,0,0,0,0,0,0,0,0,0.0179,0.0178,0,0.0098,0.0097,0.0096,0.0033,0.0032,0.0032,0.0032,-0.0106,-0.0109,-0.0113,0,0,0,0,0,0,0,0,0,0,0,0,0,0.0189,0.019,0.0179,0.0178,0.0177,0.0098,0.0097,0.0095,0.0033,0.0032,0.0032,0.0032,-0.0105,-0.0109,-0.0113,0,0,0,0,0,0,0,0,0,0,0,0,0,0.0153,0.019,0.0179,0.0138,0.0134,0.0098,0.0097,0.0095,0.0033,0.0032,0.0032,0.0031,-0.0104,-0.0109,-0.0114,-0.0132,0,0,-0.0129,-0.0131,0,0,0,0,0,0,0,0,0.0155,0.0152,0.0145,0.0141,0.0136,0.0077,0.005,0.0017,0.0033,0.0069,0.0032,0.0031,-0.0049,-0.0058,-0.0074,-0.0138,-0.0144,-0.0129,-0.0132,-0.0134,-0.0136,0,0,0,0,0,0,0,0.0158,0.0155,0.0145,0.0144,0.0139,0.0093,0.0088,0.0043,0.0012,0.0066,0.0062,0.0056,-0.0052,-0.0069,-0.0078,-0.0146,-0.0129,-0.0133,-0.0136,-0.0138,-0.0242,-0.0242,0,0,0,0,0,0,0.0177,0.0158,0.0147,0.0143,0.0146,0.0094,0.0088,0.0095,0.0014,0.0002,0.0057,0.0054,-0.006,-0.0072,-0.0083,-0.0094,-0.0134,-0.0139,-0.0142,-0.0243,-0.0242,-0.0242,0,0,0,0,0,0,0.0178,0.0178,0.0151,0.0149,0.0142,0.0095,0.0103,0.0093,0.0079,0.0008,-0.0006,0.0053,-0.0061,-0.0076,-0.0115,-0.01,-0.0141,-0.0146,-0.0243,-0.0242,-0.0242,-0.0125,0,0,0,0,0,0,0.0179,0.0179,0.0188,0.0151,0.0143,0.0145,0.0103,0.0092,0.0077,0.0072,-0.0,-0.0014,-0.0063,-0.0107,-0.012,-0.0108,-0.0149,-0.0243,-0.0243,-0.0242,-0.0129,-0.0121,-0.0113,0,0,0,0,0,0.018,0.0207,0.0189,0.0187,0.0159,0.0146,0.0138,0.0099,0.0078,0.0082,0.003,-0.0011,-0.0114,-0.011,-0.0126,-0.0114,-0.0243,-0.0243,-0.0242,-0.0133,-0.0122,-0.0114,0,0,0,0,0,0,0.0217,0.0202,0.0182,0.0202,0.0179,0.0136,0.0137,0.0109,0.0071,0.0065,-0.0007,-0.0024,-0.0053,-0.0102,-0.0096,-0.0146,-0.0187,-0.0189,-0.0098,-0.0089,-0.0081,-0.0046,-0.0153,0,0,0,0,0,0.023,0.0246,0.0216,0.0231,0.0225,0.0181,0.0169,0.0146,0.0109,0.0092,0.004,-0.0017,-0.0064,-0.0089,-0.0137,-0.0161,-0.0212,-0.0167,-0.0159,-0.0152,-0.0135,-0.0207,-0.0203,-0.0241,-0.0241,-0.0241,0,0,0.0247,0.0242,0.0249,0.024,0.0217,0.0228,0.0172,0.0169,0.0177,0.0082,0.0074,0.001,-0.0064,-0.009,-0.0109,-0.0129,-0.0167,-0.0151,-0.0144,-0.0131,-0.0206,-0.0202,-0.0199,-0.024,-0.024,-0.024,0,0,0.03,0.0287,0.0318,0.0309,0.0291,0.0267,0.0272,0.0235,0.0218,0.0198,0.0132,0.0081,0.0012,-0.0036,-0.007,-0.005,-0.0122,-0.0072,-0.0003,-0.0072,-0.0069,-0.0067,-0.0115,-0.0119,-0.0068,-0.0068,-0.0068,0,0.0318,0.0355,0.0323,0.0351,0.0355,0.0294,0.0328,0.0304,0.0259,0.025,0.0212,0.011,0.0041,0.0011,0.0011,-0.003,-0.0077,-0.0027,-0.006,-0.0059,-0.0059,-0.0109,-0.0114,-0.0062,-0.0063,-0.0063,-0.0064,0,0.0395,0.0419,0.0438,0.0455,0.0455,0.0473,0.0443,0.044,0.0403,0.0364,0.0325,0.0228,0.017,0.0132,0.0075,0.0045,0.001,-0.0039,-0.0076,-0.0048,-0.0103,-0.011,-0.0054,-0.0056,-0.0058,-0.0059,0,0,0.0449,0.0486,0.0491,0.0525,0.0514,0.0532,0.0549,0.0545,0.0566,0.049,0.05,0.0392,0.0328,0.0284,0.0202,0.0133,0.0082,0.0054,0.0048,0.0022,-0.0058,-0.008,-0.0091,0.0023,0.0022,0.0021,-0.0091,0,0.0515,0.0603,0.0593,0.0669,0.0714,0.0677,0.071,0.0696,0.0653,0.0645,0.0534,0.0498,0.039,0.0362,0.0279,0.0134,0.0066,0.0118,-0.0094,-0.01,-0.0111,-0.0099,-0.0051,-0.0147,-0.0099,-0.0101,-0.0102,0,0.0594,0.0647,0.0738,0.0805,0.0821,0.0855,0.0897,0.0912,0.087,0.0831,0.0761,0.0671,0.0573,0.047,0.0252,0.0289,0.0133,0.0009,0.0001,-0.0063,-0.0135,-0.0173,-0.0163,-0.0455,-0.0114,-0.0113,-0.0112,0,0.0673,0.0749,0.0832,0.0851,0.091,0.0953,0.0982,0.0973,0.101,0.0944,0.096,0.0804,0.0756,0.0537,0.0286,0.0264,0.004,-0.0025,-0.0188,-0.0192,-0.0213,-0.0216,-0.0496,-0.0181,-0.0181,-0.0181,-0.0181,0,0.0754,0.082,0.0883,0.0931,0.1056,0.1053,0.1159,0.1153,0.1165,0.1233,0.1067,0.109,0.0767,0.0607,0.0345,0.0071,0.0082,-0.0165,-0.0222,-0.017,-0.0168,-0.0474,-0.0638,-0.0185,-0.0184,-0.0183,-0.0183,0,0.0827,0.0857,0.0968,0.1057,0.1098,0.1189,0.1304,0.1372,0.136,0.1448,0.1442,0.1302,0.1093,0.0769,0.0416,0.0177,-0.0275,-0.0215,-0.012,-0.0164,-0.0583,-0.074,-0.108,-0.1223,-0.0404,-0.0405,-0.0406,0,0.0871,0.0937,0.1074,0.1155,0.12,0.1331,0.1429,0.1464,0.1549,0.16,0.1663,0.1499,0.1434,0.0914,0.0426,-0.0024,-0.0315,-0.0282,-0.0326,-0.0594,-0.0813,-0.0939,-0.1043,-0.0308,-0.0308,-0.0308,-0.0308,0,0.096,0.1004,0.1097,0.1278,0.1398,0.1551,0.1696,0.1808,0.1872,0.1959,0.2045,0.2003,0.1526,0.1092,0.0455,0.0126,-0.0483,-0.0298,-0.0612,-0.0786,-0.0906,-0.1072,-0.0242,-0.0309,-0.0309,-0.0309,-0.0309,-0.0309,0.1022,0.1111,0.124,0.1412,0.156,0.1764,0.1923,0.208,0.2269,0.2454,0.2369,0.2403,0.1752,0.0896,0.0373,-0.0498,-0.0535,-0.074,-0.0911,-0.1017,-0.1153,-0.0311,-0.0426,-0.0427,-0.0427,-0.0428,-0.0428,0,0.1105,0.1209,0.1367,0.1577,0.1756,0.1827,0.2095,0.2271,0.2531,0.2725,0.2817,0.258,0.1757,0.091,-0.0272,-0.0954,-0.122,-0.1336,-0.1516,-0.1599,-0.0873,-0.0865,-0.1035,-0.1035,-0.1035,-0.1035,-0.1034,-0.1034,0.115,0.1311,0.1399,0.1708,0.1863,0.2136,0.2311,0.2578,0.28,0.3094,0.3191,0.3195,0.2626,0.0348,-0.119,-0.1577,-0.2043,-0.2167,-0.2438,-0.1951,-0.1909,-0.1868,-0.1902,-0.2287,-0.2288,-0.306,-0.3068,-0.3074]}],[{"header":{"parameterUnit":"m.s-1","parameterCategory":2,"la1":30.2991,"la2":30.254,"lo1":-89.0895,"lo2":-89.0444,"dx":0.0017,"dy":0.0017,"nx":28,"ny":28,"refTime":"2022-11-26T09:00:00:Z","depth":"2","parameterNumber":2,"parameterNumberName":"U-component_of_CURRENTS"},"data":[0,0,0,0,0,0,0,0,0,0,0,0,0,0,0,0,0,0,0,0,0,0,0,0,0,0,0,0,0,0,0,0,0,0,0,0,0,0,0,0,0,0,0,0,0,0,0,0,0,0,0,0,0,0,0,0,0,0,0.3939,0.394,0,0.4005,0.4005,0.4006,0.4008,0.4008,0.4007,0.4007,0.4032,0.4033,0.4034,0,0,0,0,0,0,0,0,0,0,0,0,0,0.3825,0.3826,0.3939,0.394,0.3941,0.4005,0.4005,0.4006,0.4008,0.4008,0.4007,0.4007,0.4031,0.4032,0.4034,0,0,0,0,0,0,0,0,0,0,0,0,0,0.3876,0.3827,0.3939,0.3954,0.3956,0.4005,0.4005,0.4006,0.4008,0.4008,0.4007,0.4007,0.4031,0.4032,0.4034,0.4054,0,0,0.4038,0.4039,0,0,0,0,0,0,0,0,0.3873,0.388,0.395,0.3953,0.3955,0.4002,0.3975,0.4022,0.4008,0.3983,0.4007,0.4006,0.4021,0.4024,0.4031,0.4055,0.4056,0.4039,0.4039,0.404,0.404,0,0,0,0,0,0,0,0.387,0.3877,0.396,0.3952,0.3955,0.3961,0.3967,0.3983,0.4,0.3985,0.3987,0.4002,0.4022,0.403,0.4032,0.4056,0.4038,0.404,0.4041,0.4041,0.4167,0.4169,0,0,0,0,0,0,0.3872,0.3874,0.3958,0.3963,0.3918,0.3964,0.397,0.3984,0.4001,0.4005,0.4003,0.4002,0.4027,0.403,0.4032,0.4114,0.404,0.4041,0.4042,0.4165,0.4168,0.417,0,0,0,0,0,0,0.3869,0.3878,0.3955,0.3923,0.3934,0.3967,0.3981,0.3985,0.4007,0.4015,0.4017,0.4022,0.4027,0.403,0.407,0.4112,0.4042,0.4043,0.4162,0.4166,0.4169,0.424,0,0,0,0,0,0,0.3865,0.3877,0.3891,0.3924,0.3936,0.4,0.3983,0.3987,0.4018,0.4019,0.4032,0.4033,0.4027,0.4068,0.4071,0.4113,0.4045,0.4159,0.4163,0.4168,0.4234,0.4245,0.4255,0,0,0,0,0,0.3861,0.388,0.3891,0.3901,0.3953,0.4002,0.4009,0.4026,0.402,0.404,0.4053,0.4033,0.4099,0.4071,0.4074,0.4118,0.4156,0.4162,0.4167,0.423,0.4243,0.4255,0,0,0,0,0,0,0.3834,0.3884,0.3896,0.3928,0.3971,0.4004,0.4028,0.4038,0.4063,0.4065,0.406,0.4063,0.4119,0.4111,0.4079,0.417,0.4127,0.4134,0.4173,0.4186,0.4196,0.4207,0.4046,0,0,0,0,0,0.3837,0.3868,0.3915,0.3945,0.3968,0.4001,0.4024,0.404,0.4068,0.4078,0.409,0.411,0.4144,0.4157,0.4182,0.4225,0.4239,0.4258,0.4269,0.4277,0.4291,0.4357,0.4375,0.4188,0.4188,0.4188,0,0,0.3833,0.3869,0.3884,0.3943,0.3975,0.4016,0.4013,0.4059,0.4094,0.4078,0.4126,0.4149,0.4166,0.4221,0.4245,0.4217,0.4339,0.4284,0.4291,0.43,0.4365,0.4383,0.4399,0.4192,0.4191,0.4191,0,0,0.3847,0.3878,0.391,0.3951,0.4014,0.4038,0.4056,0.4105,0.4128,0.4181,0.4187,0.4235,0.4272,0.4301,0.4318,0.4401,0.4396,0.4412,0.4466,0.4531,0.4546,0.456,0.4603,0.462,0.441,0.4411,0.4411,0,0.3842,0.3888,0.3927,0.3974,0.4015,0.405,0.4096,0.4128,0.4183,0.4224,0.4206,0.4312,0.4313,0.4401,0.4426,0.4424,0.4455,0.4413,0.4544,0.4558,0.4571,0.4611,0.4629,0.4415,0.4414,0.4414,0.4413,0,0.3877,0.3922,0.3949,0.4018,0.4067,0.4115,0.4172,0.4229,0.426,0.4293,0.4393,0.4413,0.4481,0.4489,0.4477,0.4583,0.4574,0.4552,0.4508,0.4594,0.463,0.4648,0.4421,0.4419,0.4418,0.4417,0,0,0.3842,0.395,0.3959,0.3998,0.4098,0.4131,0.4227,0.4317,0.437,0.4436,0.452,0.4584,0.4609,0.463,0.4638,0.4679,0.4783,0.4656,0.4658,0.4691,0.4926,0.4907,0.4924,0.479,0.4794,0.4797,0.4914,0,0.3858,0.3933,0.3999,0.4073,0.4116,0.4209,0.4281,0.4372,0.4441,0.4526,0.4597,0.4662,0.4657,0.4689,0.4748,0.4781,0.4834,0.4753,0.4845,0.4847,0.4814,0.4945,0.4578,0.4652,0.4931,0.4934,0.4936,0,0.3867,0.3918,0.3994,0.41,0.4129,0.4183,0.4321,0.4395,0.454,0.4596,0.4715,0.4761,0.4876,0.4827,0.4972,0.4927,0.4942,0.4949,0.4954,0.4925,0.4862,0.4613,0.4673,0.4965,0.4962,0.496,0.4958,0,0.3801,0.3911,0.3967,0.4005,0.4132,0.4201,0.4276,0.442,0.4514,0.4649,0.4745,0.4863,0.4959,0.5013,0.5081,0.5031,0.5214,0.514,0.5142,0.5139,0.4839,0.4805,0.5234,0.5234,0.5233,0.5233,0.5233,0,0.3788,0.3826,0.3935,0.3961,0.404,0.4148,0.4255,0.4356,0.4527,0.4636,0.4777,0.4897,0.5016,0.5145,0.5142,0.5237,0.5286,0.5191,0.5189,0.4855,0.4823,0.5093,0.5075,0.5237,0.5237,0.5236,0.5235,0,0.3715,0.3787,0.3847,0.3968,0.4013,0.4068,0.4256,0.4321,0.4508,0.4674,0.4736,0.4981,0.5143,0.5257,0.5353,0.5344,0.5385,0.5391,0.4994,0.4946,0.5238,0.5222,0.5397,0.5398,0.5398,0.5399,0.5399,0,0.3687,0.371,0.3826,0.3857,0.3916,0.4021,0.4086,0.4283,0.4378,0.4707,0.4777,0.5039,0.5183,0.5388,0.5388,0.5433,0.5455,0.5098,0.4937,0.5285,0.5266,0.5249,0.5233,0.4552,0.4545,0.454,0.4536,0,0.3626,0.3666,0.3708,0.3776,0.3837,0.3914,0.4038,0.4124,0.4358,0.4541,0.4769,0.4926,0.5181,0.5103,0.5221,0.5167,0.5062,0.4996,0.5477,0.4591,0.4505,0.448,0.4489,0.4488,0.4493,0.4496,0.4499,0.4501,0.3566,0.3575,0.3625,0.3675,0.3731,0.3771,0.3788,0.3945,0.4105,0.4307,0.4564,0.4676,0.4802,0.4812,0.4697,0.4612,0.4937,0.4686,0.4695,0.471,0.4616,0.4539,0.4509,0.4513,0.4517,0.4521,0.4524,0,0.347,0.3485,0.3519,0.3552,0.3531,0.3627,0.3711,0.3695,0.3795,0.4044,0.4214,0.3996,0.404,0.4128,0.3973,0.4024,0.3888,0.3823,0.3596,0.3654,0.3702,0.3544,0.3158,0.3152,0.3147,0.3142,0,0,0.3417,0.3389,0.3398,0.333,0.335,0.3284,0.3288,0.3304,0.343,0.3472,0.353,0.3873,0.4083,0.3562,0.3539,0.3319,0.3431,0.319,0.4313,0.411,0.4149,0.4265,0.4099,0,0,0,0,0]},{"header":{"parameterUnit":"m.s-1","parameterCategory":2,"la1":30.2991,"la2":30.254,"lo1":-89.0895,"lo2":-89.0444,"dx":0.0017,"dy":0.0017,"nx":28,"ny":28,"refTime":"2022-11-26T09:00:00:Z","depth":"2","parameterNumber":3,"parameterNumberName":"V-component_of_CURRENTS"},"data":[0,0,0,0,0,0,0,0,0,0,0,0,0,0,0,0,0,0,0,0,0,0,0,0,0,0,0,0,0,0,0,0,0,0,0,0,0,0,0,0,0,0,0,0,0,0,0,0,0,0,0,0,0,0,0,0,0,0,0.0181,0.018,0,0.0103,0.0102,0.0101,0.0042,0.0041,0.0041,0.0041,-0.0091,-0.0094,-0.0098,0,0,0,0,0,0,0,0,0,0,0,0,0,0.0192,0.0192,0.0181,0.018,0.0179,0.0104,0.0102,0.0101,0.0042,0.0041,0.0041,0.004,-0.009,-0.0094,-0.0098,0,0,0,0,0,0,0,0,0,0,0,0,0,0.0157,0.0192,0.0181,0.0142,0.0138,0.0104,0.0102,0.0101,0.0042,0.0041,0.0041,0.004,-0.0089,-0.0094,-0.0098,-0.0115,0,0,-0.0113,-0.0115,0,0,0,0,0,0,0,0,0.0159,0.0156,0.0149,0.0145,0.014,0.0083,0.0058,0.0026,0.0042,0.0076,0.0041,0.004,-0.0036,-0.0045,-0.0061,-0.0122,-0.0127,-0.0113,-0.0116,-0.0118,-0.0119,0,0,0,0,0,0,0,0.0161,0.0158,0.0148,0.0148,0.0143,0.0099,0.0094,0.0051,0.0022,0.0073,0.0069,0.0064,-0.004,-0.0056,-0.0064,-0.0129,-0.0113,-0.0117,-0.012,-0.0122,-0.022,-0.022,0,0,0,0,0,0,0.018,0.0162,0.0151,0.0146,0.015,0.01,0.0094,0.0101,0.0023,0.0012,0.0064,0.0061,-0.0047,-0.0059,-0.0069,-0.0078,-0.0118,-0.0122,-0.0125,-0.0221,-0.022,-0.022,0,0,0,0,0,0,0.0181,0.018,0.0154,0.0152,0.0146,0.0101,0.0108,0.0099,0.0086,0.0018,0.0005,0.0061,-0.0048,-0.0062,-0.0099,-0.0085,-0.0125,-0.0129,-0.0221,-0.022,-0.022,-0.0107,0,0,0,0,0,0,0.0181,0.0181,0.019,0.0155,0.0147,0.0149,0.0109,0.0098,0.0084,0.0079,0.001,-0.0003,-0.005,-0.0092,-0.0104,-0.0092,-0.0132,-0.0221,-0.0221,-0.022,-0.0111,-0.0103,-0.0096,0,0,0,0,0,0.0182,0.0209,0.0191,0.019,0.0162,0.015,0.0143,0.0105,0.0085,0.0089,0.0039,-0.0001,-0.0098,-0.0095,-0.0109,-0.0098,-0.0221,-0.0221,-0.022,-0.0115,-0.0105,-0.0097,0,0,0,0,0,0,0.0219,0.0204,0.0184,0.0204,0.0182,0.0141,0.0142,0.0114,0.0078,0.0073,0.0004,-0.0012,-0.004,-0.0087,-0.0082,-0.0128,-0.0167,-0.017,-0.0082,-0.0074,-0.0066,-0.0032,-0.0136,0,0,0,0,0,0.0231,0.0247,0.0218,0.0232,0.0226,0.0183,0.0172,0.015,0.0115,0.0098,0.0049,-0.0006,-0.005,-0.0074,-0.012,-0.0142,-0.0192,-0.0148,-0.014,-0.0133,-0.0117,-0.0188,-0.0185,-0.0219,-0.0219,-0.0219,0,0,0.0248,0.0242,0.0249,0.024,0.0219,0.023,0.0175,0.0172,0.0181,0.0089,0.0082,0.0021,-0.005,-0.0075,-0.0092,-0.0111,-0.0149,-0.0132,-0.0126,-0.0113,-0.0187,-0.0184,-0.0181,-0.0218,-0.0218,-0.0218,0,0,0.0299,0.0286,0.0316,0.0308,0.029,0.0267,0.0272,0.0237,0.022,0.0201,0.0138,0.0089,0.0024,-0.0022,-0.0055,-0.0035,-0.0106,-0.0055,0.0011,-0.0058,-0.0055,-0.0054,-0.0103,-0.0107,-0.0051,-0.0051,-0.0051,0,0.0317,0.0353,0.0321,0.0348,0.0353,0.0293,0.0326,0.0304,0.0261,0.0252,0.0215,0.0117,0.0052,0.0023,0.0024,-0.0015,-0.0063,-0.0013,-0.0046,-0.0046,-0.0046,-0.0098,-0.0103,-0.0046,-0.0046,-0.0047,-0.0047,0,0.0391,0.0414,0.0433,0.0449,0.045,0.0467,0.0438,0.0435,0.04,0.0362,0.0324,0.0232,0.0176,0.014,0.0085,0.0056,0.0021,-0.0026,-0.0062,-0.0035,-0.0092,-0.01,-0.0038,-0.004,-0.0041,-0.0043,0,0,0.0443,0.0479,0.0484,0.0517,0.0507,0.0525,0.0541,0.0537,0.0555,0.0483,0.0491,0.0389,0.0327,0.0286,0.0206,0.0139,0.0087,0.0063,0.0057,0.0028,-0.0054,-0.0078,-0.009,0.003,0.0029,0.0028,-0.0089,0,0.0507,0.0593,0.0583,0.0657,0.0701,0.0665,0.0696,0.0682,0.064,0.0629,0.0524,0.0489,0.0387,0.0361,0.0279,0.0137,0.007,0.0124,-0.0088,-0.0094,-0.0107,-0.0099,-0.0052,-0.0153,-0.0097,-0.0099,-0.01,0,0.0583,0.0635,0.0724,0.0789,0.0804,0.0837,0.0875,0.089,0.0846,0.0808,0.0739,0.0652,0.0557,0.046,0.0245,0.0283,0.0131,0.0011,0.0002,-0.0062,-0.0132,-0.0176,-0.017,-0.0114,-0.0112,-0.0111,-0.011,0,0.0659,0.0734,0.0815,0.0833,0.0891,0.0931,0.0959,0.0947,0.0982,0.0917,0.0929,0.0778,0.0729,0.0518,0.0271,0.0254,0.0026,-0.0031,-0.0192,-0.0195,-0.0217,-0.0221,-0.0184,-0.0184,-0.0184,-0.0183,-0.0183,0,0.0738,0.0802,0.0864,0.091,0.103,0.1028,0.1128,0.1121,0.113,0.1192,0.1033,0.1048,0.0738,0.0576,0.0324,0.0053,0.0063,-0.0171,-0.0227,-0.0177,-0.0175,-0.0193,-0.0192,-0.0188,-0.0187,-0.0186,-0.0185,0,0.0808,0.0838,0.0946,0.1031,0.1071,0.1158,0.1268,0.133,0.1317,0.1396,0.139,0.1247,0.1036,0.0722,0.0376,0.0148,-0.0131,-0.0235,-0.0144,-0.0188,-0.0318,-0.0311,-0.0415,-0.0417,-0.0418,-0.042,-0.0421,0,0.0851,0.0914,0.1048,0.1126,0.1169,0.1295,0.1388,0.1421,0.1498,0.1536,0.1592,0.1423,0.1345,0.0833,0.0366,-0.007,-0.0132,-0.0312,-0.0343,-0.0297,-0.0342,-0.0332,-0.0323,-0.0329,-0.0329,-0.0329,-0.0329,0,0.0935,0.0978,0.1069,0.1243,0.1358,0.1505,0.1642,0.1744,0.1801,0.1874,0.1939,0.1885,0.1413,0.097,0.0355,0.0061,-0.0242,-0.0329,-0.0316,-0.0271,-0.0225,-0.0266,-0.0258,-0.0331,-0.0331,-0.0331,-0.0331,-0.0331,0.0995,0.108,0.1204,0.1371,0.1513,0.1704,0.1854,0.1994,0.2163,0.2301,0.2214,0.2147,0.1622,0.0854,0.0302,-0.0271,-0.0236,-0.0423,-0.0419,-0.0416,-0.0378,-0.0337,-0.0457,-0.0457,-0.0458,-0.0458,-0.0458,0,0.1072,0.1172,0.1324,0.1526,0.1695,0.1767,0.2016,0.2164,0.239,0.2495,0.2548,0.2074,0.1559,0.0956,0.0107,-0.0391,-0.043,-0.0542,-0.0482,-0.0475,-0.047,-0.0434,-0.0529,-0.0531,-0.0533,-0.0534,0,0,0.1114,0.1267,0.1352,0.1644,0.1795,0.2051,0.2214,0.2426,0.2568,0.2687,0.2651,0.2518,0.1774,0.1149,0.0448,-0.0039,-0.0134,-0.013,-0.0014,0.0149,0.016,-0.034,-0.0269,0,0,0,0,0]}],[{"header":{"parameterUnit":"m.s-1","parameterCategory":2,"la1":30.2991,"la2":30.254,"lo1":-89.0895,"lo2":-89.0444,"dx":0.0017,"dy":0.0017,"nx":28,"ny":28,"refTime":"2022-11-26T09:00:00:Z","depth":"4","parameterNumber":2,"parameterNumberName":"U-component_of_CURRENTS"},"data":[0,0,0,0,0,0,0,0,0,0,0,0,0,0,0,0,0,0,0,0,0,0,0,0,0,0,0,0,0,0,0,0,0,0,0,0,0,0,0,0,0,0,0,0,0,0,0,0,0,0,0,0,0,0,0,0,0,0,0.2606,0.2608,0,0.2721,0.2722,0.2723,0.2811,0.2812,0.2813,0.2814,0.2945,0.2948,0.295,0,0,0,0,0,0,0,0,0,0,0,0,0,0.2454,0.2456,0.2606,0.2608,0.261,0.2721,0.2722,0.2723,0.2811,0.2812,0.2814,0.2815,0.2944,0.2947,0.295,0,0,0,0,0,0,0,0,0,0,0,0,0,0.2536,0.2457,0.2606,0.267,0.2677,0.272,0.2722,0.2723,0.281,0.2812,0.2814,0.2816,0.2943,0.2947,0.295,0.2937,0,0,0.2961,0.2963,0,0,0,0,0,0,0,0,0.2531,0.2541,0.2658,0.2665,0.2673,0.2757,0.2716,0.2797,0.281,0.2756,0.2814,0.2816,0.2885,0.2893,0.2905,0.2944,0.2949,0.2962,0.2964,0.2965,0.2966,0,0,0,0,0,0,0,0.2525,0.2537,0.2648,0.266,0.2669,0.269,0.2703,0.2732,0.2806,0.2761,0.2768,0.2786,0.2889,0.2902,0.2909,0.2951,0.2962,0.2965,0.2967,0.2968,0.3161,0.3164,0,0,0,0,0,0,0.2518,0.2531,0.2644,0.2652,0.2609,0.2691,0.2706,0.2725,0.2806,0.2821,0.2785,0.279,0.2895,0.2905,0.2914,0.306,0.2965,0.2969,0.2971,0.3158,0.3162,0.3165,0,0,0,0,0,0,0.2514,0.2526,0.264,0.2597,0.2613,0.2692,0.2713,0.2726,0.2797,0.2825,0.284,0.2849,0.2896,0.2909,0.2996,0.306,0.297,0.2974,0.3155,0.3159,0.3163,0.3251,0,0,0,0,0,0,0.2509,0.2524,0.2562,0.2596,0.2616,0.2703,0.2712,0.2728,0.2804,0.2814,0.2883,0.2894,0.2899,0.2991,0.3,0.3063,0.2976,0.3151,0.3157,0.3162,0.3244,0.3258,0.3269,0,0,0,0,0,0.2503,0.2536,0.2563,0.2578,0.2656,0.2705,0.2717,0.2775,0.2806,0.2844,0.29,0.2895,0.3033,0.2996,0.3006,0.3072,0.3148,0.3155,0.3161,0.3239,0.3255,0.3269,0,0,0,0,0,0,0.2491,0.255,0.2579,0.2632,0.2685,0.2722,0.2774,0.2805,0.2878,0.2907,0.2927,0.2942,0.3044,0.3045,0.3004,0.3145,0.3092,0.3101,0.3147,0.3163,0.3175,0.3178,0.2979,0,0,0,0,0,0.2504,0.2552,0.2601,0.2653,0.2684,0.2739,0.2778,0.2818,0.2872,0.2909,0.2958,0.3015,0.3067,0.3107,0.3149,0.3221,0.3225,0.3272,0.3285,0.3295,0.3306,0.3368,0.3387,0.3187,0.3187,0.3186,0,0,0.2515,0.2556,0.2586,0.2656,0.2706,0.2754,0.2768,0.2845,0.29,0.2909,0.3021,0.3065,0.3098,0.3185,0.323,0.3202,0.3357,0.3304,0.3313,0.3318,0.3377,0.3396,0.3413,0.3191,0.319,0.319,0,0,0.254,0.2601,0.2644,0.2693,0.2778,0.2807,0.2841,0.2914,0.2972,0.3064,0.3093,0.3176,0.3256,0.3294,0.3318,0.3425,0.3421,0.3453,0.352,0.3581,0.3597,0.3612,0.3642,0.3658,0.3458,0.3458,0.3459,0,0.2558,0.2614,0.2666,0.2718,0.2772,0.2836,0.2893,0.2948,0.3046,0.3106,0.3119,0.3277,0.3303,0.3405,0.3447,0.3453,0.3481,0.3456,0.3596,0.361,0.3624,0.3651,0.3668,0.3463,0.3463,0.3462,0.3462,0,0.2593,0.2664,0.2699,0.2785,0.2846,0.2912,0.2986,0.3075,0.3152,0.3205,0.3349,0.3396,0.3492,0.3516,0.3515,0.3637,0.3625,0.3603,0.3551,0.3649,0.3671,0.3688,0.3471,0.3469,0.3467,0.3466,0,0,0.2563,0.2698,0.2717,0.2771,0.2894,0.2935,0.3058,0.3168,0.3252,0.3364,0.3475,0.3578,0.3629,0.366,0.3685,0.3734,0.3846,0.3722,0.3723,0.3741,0.398,0.3753,0.3748,0.3861,0.3864,0.3867,0.3956,0,0.2584,0.2678,0.2753,0.2858,0.2911,0.3027,0.3121,0.3238,0.3343,0.3463,0.3557,0.3664,0.3674,0.3738,0.3801,0.3843,0.3895,0.3823,0.3892,0.3893,0.3671,0.3761,0.3878,0.3968,0.3972,0.3974,0.3976,0,0.2584,0.2653,0.2758,0.2896,0.2934,0.3016,0.3191,0.3287,0.3465,0.3552,0.3698,0.3767,0.3904,0.3871,0.4018,0.3983,0.4001,0.4008,0.4012,0.3778,0.3696,0.3853,0.4005,0.4003,0.4,0.3998,0.3997,0,0.2504,0.265,0.2738,0.2788,0.2952,0.305,0.3155,0.3332,0.3442,0.3629,0.3736,0.388,0.3994,0.4053,0.412,0.4088,0.424,0.4184,0.3992,0.3976,0.4113,0.4097,0.4268,0.4268,0.4268,0.4268,0.4268,0,0.2466,0.254,0.2718,0.2761,0.2882,0.3018,0.3172,0.3298,0.3498,0.3615,0.379,0.3895,0.4055,0.4165,0.417,0.4145,0.4297,0.4017,0.399,0.4148,0.4135,0.4124,0.4106,0.4271,0.427,0.427,0.4269,0,0.2364,0.2482,0.2587,0.2778,0.2851,0.2943,0.319,0.3276,0.3497,0.3665,0.3742,0.3974,0.4097,0.4214,0.4306,0.4201,0.4184,0.4132,0.4311,0.4291,0.386,0.3847,0.39,0.3893,0.3887,0.3882,0.3878,0,0.2314,0.2362,0.2578,0.2646,0.275,0.2916,0.3016,0.3252,0.3349,0.3669,0.3718,0.3949,0.4065,0.4031,0.4151,0.4149,0.4102,0.4061,0.3933,0.3857,0.3827,0.3823,0.3817,0.3868,0.3866,0.3865,0.3863,0,0.2215,0.2319,0.2404,0.2548,0.2671,0.2788,0.2958,0.3018,0.3274,0.3511,0.3608,0.3679,0.3817,0.3873,0.3925,0.3907,0.4061,0.3997,0.4007,0.3886,0.3819,0.3794,0.3796,0.3842,0.3845,0.3847,0.3848,0,0.2147,0.2181,0.231,0.2416,0.2553,0.2608,0.2727,0.2838,0.2975,0.3312,0.3329,0.3562,0.3771,0.375,0.3786,0.3771,0.3693,0.3544,0.3577,0.3601,0.3462,0.3331,0.3192,0,0,0,0,0,0.206,0.2075,0.216,0.2256,0.2376,0.2461,0.2652,0.2772,0.3025,0.3008,0.3166,0.3263,0.3339,0.3459,0.338,0.3648,0.3706,0.3538,0.3551,0.3726,0.375,0.3613,0,0,0,0,0,0,0.1997,0.2069,0.2097,0.2093,0.2125,0.2236,0.2347,0.2521,0.2531,0.2801,0.286,0.3063,0.3186,0.3349,0.3316,0.3351,0.329,0.3687,0.3678,0.3712,0.3734,0.3754,0.3621,0,0,0,0,0]},{"header":{"parameterUnit":"m.s-1","parameterCategory":2,"la1":30.2991,"la2":30.254,"lo1":-89.0895,"lo2":-89.0444,"dx":0.0017,"dy":0.0017,"nx":28,"ny":28,"refTime":"2022-11-26T09:00:00:Z","depth":"4","parameterNumber":3,"parameterNumberName":"V-component_of_CURRENTS"},"data":[0,0,0,0,0,0,0,0,0,0,0,0,0,0,0,0,0,0,0,0,0,0,0,0,0,0,0,0,0,0,0,0,0,0,0,0,0,0,0,0,0,0,0,0,0,0,0,0,0,0,0,0,0,0,0,0,0,0,0.0142,0.0142,0,0.0089,0.0088,0.0087,0.0047,0.0047,0.0047,0.0046,-0.0054,-0.0057,-0.0059,0,0,0,0,0,0,0,0,0,0,0,0,0,0.0149,0.015,0.0143,0.0142,0.0141,0.0089,0.0088,0.0087,0.0047,0.0047,0.0047,0.0046,-0.0054,-0.0056,-0.0059,0,0,0,0,0,0,0,0,0,0,0,0,0,0.0125,0.015,0.0143,0.0116,0.0113,0.0089,0.0088,0.0087,0.0047,0.0047,0.0046,0.0046,-0.0053,-0.0056,-0.006,-0.0075,0,0,-0.0071,-0.0073,0,0,0,0,0,0,0,0,0.0127,0.0125,0.012,0.0118,0.0115,0.0075,0.0053,0.0031,0.0047,0.0071,0.0046,0.0046,-0.0014,-0.0021,-0.0031,-0.008,-0.0084,-0.0071,-0.0074,-0.0075,-0.0076,0,0,0,0,0,0,0,0.0128,0.0127,0.012,0.012,0.0116,0.0086,0.0082,0.0049,0.0029,0.0069,0.0066,0.0062,-0.0017,-0.0028,-0.0034,-0.0085,-0.0071,-0.0074,-0.0077,-0.0078,-0.0155,-0.0154,0,0,0,0,0,0,0.0141,0.0129,0.0122,0.0119,0.0121,0.0086,0.0082,0.0087,0.0031,0.0022,0.0063,0.0061,-0.0021,-0.003,-0.0038,-0.0043,-0.0075,-0.0079,-0.0081,-0.0155,-0.0155,-0.0154,0,0,0,0,0,0,0.0142,0.0142,0.0124,0.0122,0.0118,0.0087,0.0093,0.0086,0.0079,0.0027,0.0017,0.0062,-0.0022,-0.0033,-0.006,-0.0048,-0.008,-0.0084,-0.0155,-0.0155,-0.0154,-0.0063,0,0,0,0,0,0,0.0142,0.0142,0.015,0.0124,0.0119,0.0122,0.0093,0.0086,0.0077,0.0074,0.0023,0.0013,-0.0023,-0.0054,-0.0064,-0.0053,-0.0086,-0.0155,-0.0155,-0.0154,-0.0067,-0.006,-0.0055,0,0,0,0,0,0.0143,0.0163,0.0151,0.015,0.0131,0.0122,0.0117,0.0092,0.0078,0.0082,0.0045,0.0014,-0.0059,-0.0057,-0.0068,-0.0059,-0.0155,-0.0155,-0.0155,-0.0069,-0.0061,-0.0055,0,0,0,0,0,0,0.017,0.016,0.0146,0.0162,0.0146,0.0116,0.0119,0.0099,0.0074,0.0071,0.0018,0.0006,-0.0014,-0.0051,-0.0047,-0.0082,-0.0113,-0.0115,-0.0045,-0.0038,-0.0032,-0.0005,-0.0089,0,0,0,0,0,0.018,0.0193,0.0172,0.0183,0.018,0.0149,0.0142,0.0127,0.0101,0.009,0.0053,0.0012,-0.0022,-0.004,-0.0075,-0.0092,-0.0138,-0.0096,-0.009,-0.0084,-0.0071,-0.0136,-0.0134,-0.0153,-0.0153,-0.0153,0,0,0.0193,0.019,0.0195,0.019,0.0175,0.0186,0.0144,0.0144,0.0154,0.0082,0.0081,0.0033,-0.0022,-0.004,-0.0052,-0.0068,-0.0102,-0.0083,-0.0078,-0.0068,-0.0135,-0.0133,-0.0132,-0.0153,-0.0153,-0.0153,0,0,0.0232,0.0224,0.0248,0.0243,0.0232,0.0216,0.022,0.0196,0.0186,0.0174,0.0125,0.0087,0.0038,0.0003,-0.0022,-0.0006,-0.0068,-0.0021,0.0032,-0.0031,-0.0029,-0.0029,-0.0079,-0.0084,-0.0018,-0.0018,-0.0018,0,0.0246,0.0275,0.0252,0.0274,0.028,0.0237,0.0265,0.025,0.0219,0.0213,0.0187,0.0112,0.0061,0.0039,0.0041,0.001,-0.0035,0.0013,-0.0021,-0.0022,-0.0023,-0.0075,-0.0081,-0.0014,-0.0014,-0.0014,-0.0015,0,0.0302,0.0324,0.0339,0.0355,0.0358,0.0374,0.0355,0.0355,0.0331,0.0303,0.0275,0.0205,0.0161,0.0133,0.0091,0.0064,0.0032,-0.0005,-0.0034,-0.0015,-0.0072,-0.008,-0.0007,-0.0009,-0.001,-0.0011,0,0,0.0337,0.0372,0.0378,0.0407,0.0404,0.0419,0.0437,0.0437,0.0451,0.04,0.0406,0.033,0.0281,0.0249,0.0187,0.0128,0.0075,0.0065,0.006,0.0026,-0.0058,-0.0068,-0.0078,0.0029,0.0028,0.0027,-0.0093,0,0.0386,0.0456,0.0454,0.0518,0.0554,0.0531,0.0559,0.0551,0.052,0.0512,0.0431,0.0407,0.0329,0.0311,0.024,0.0119,0.0057,0.0112,-0.0081,-0.0086,-0.0089,-0.0087,0.0024,-0.0099,-0.0101,-0.0103,-0.0104,0,0.044,0.0484,0.056,0.0621,0.0635,0.0666,0.07,0.0717,0.0683,0.0656,0.0603,0.0534,0.0456,0.0383,0.0195,0.0232,0.0101,-0.0003,-0.0011,-0.0054,-0.0111,-0.0127,-0.0119,-0.0118,-0.0117,-0.0116,-0.0115,0,0.0489,0.0559,0.0629,0.0647,0.0702,0.074,0.0769,0.0761,0.0792,0.0747,0.0753,0.0632,0.0591,0.0413,0.0204,0.0195,-0.0016,-0.0057,-0.0188,-0.019,-0.0185,-0.0185,-0.0194,-0.0193,-0.0193,-0.0193,-0.0192,0,0.054,0.0598,0.0665,0.0704,0.0807,0.0815,0.0901,0.0901,0.0912,0.0954,0.084,0.0835,0.0593,0.0447,0.0239,0.0008,0.0008,-0.0173,-0.0221,-0.0144,-0.0138,-0.0191,-0.0189,-0.0197,-0.0196,-0.0195,-0.0195,0,0.0578,0.0615,0.071,0.0794,0.0835,0.0909,0.1013,0.1061,0.1061,0.1113,0.1112,0.0984,0.079,0.0539,0.0243,0.0073,-0.0162,-0.0249,-0.0132,-0.0173,-0.0303,-0.0295,-0.0396,-0.0397,-0.0398,-0.0399,-0.04,0,0.0601,0.0654,0.0784,0.0853,0.0898,0.1012,0.1092,0.1134,0.1188,0.1205,0.1233,0.108,0.0962,0.0561,0.0265,-0.0124,-0.019,-0.031,-0.0321,-0.0286,-0.0324,-0.0314,-0.0305,-0.0402,-0.0402,-0.0402,-0.0402,0,0.0646,0.0693,0.0771,0.0923,0.1025,0.1152,0.1266,0.1321,0.1372,0.1377,0.1342,0.1139,0.0919,0.058,0.0274,-0.0011,-0.0231,-0.0323,-0.0323,-0.0335,-0.0294,-0.0329,-0.0318,-0.0406,-0.0406,-0.0405,-0.0405,0,0.0677,0.0741,0.0849,0.0983,0.1122,0.1252,0.1312,0.1386,0.1447,0.1459,0.1439,0.1202,0.1057,0.0638,0.0356,0.0075,-0.0005,-0.0104,-0.0116,-0.0116,-0.0012,0.0082,0.0051,0,0,0,0,0,0.0702,0.0776,0.0899,0.1048,0.1187,0.1279,0.1412,0.1455,0.1512,0.1504,0.148,0.1276,0.0872,0.0693,0.0413,0.0301,-0.0078,-0.0041,-0.0203,-0.0428,-0.0424,-0.0352,0,0,0,0,0,0,0.0716,0.0828,0.0896,0.1082,0.1193,0.1355,0.1448,0.1485,0.1485,0.1495,0.1287,0.1198,0.08,0.1038,0.0408,0.0321,0.0177,-0.0227,-0.0234,-0.0431,-0.0427,-0.0423,-0.0347,0,0,0,0,0]}]]